When you browse on this site, cookies collect data to enhance your experience and personalize the content and advertising you see.
Visit our Privacy Policy to learn more. By continuing to use the site, you agree to this use of cookies and data.
  • In Sweden
  • List of Countries
  • For 7 days
  • Water Temperature
  • Weather Map
  • Weather Widgets
  • user-avatar
    Login

    Hourly Weather Barnstaple

    Today, 21 September, Saturday

    Time Temperature Precipitation Wind Pressure Humidity
    00:00 +15°C° 0 mm 8 mps 753 mmHg 68%
    01:00 +15°C° 0 mm 8 mps 752 mmHg 68%
    02:00 +15°C° 0 mm 8 mps 752 mmHg 69%
    03:00 +15°C° 0 mm 8 mps 751 mmHg 70%
    04:00 +15°C° 0 mm 8 mps 750 mmHg 71%
    05:00 +13°C° 0 mm 9 mps 750 mmHg 72%
    06:00 +13°C° 0 mm 9 mps 750 mmHg 74%
    07:00 +15°C° 0 mm 9 mps 749 mmHg 73%
    08:00 +17°C° 0 mm 9 mps 749 mmHg 73%
    09:00 +18°C° 0 mm 9 mps 749 mmHg 72%
    10:00 +18°C° 0 mm 9 mps 749 mmHg 72%
    11:00 +19°C° 0 mm 9 mps 749 mmHg 73%
    12:00 +21°C° 0 mm 9 mps 749 mmHg 73%
    13:00 +21°C° 0 mm 8 mps 748 mmHg 75%
    14:00 +21°C° 0 mm 8 mps 748 mmHg 76%
    15:00 +21°C° 0 mm 8 mps 747 mmHg 77%
    16:00 +20°C° 0.4 mm 7 mps 747 mmHg 81%
    17:00 +19°C° 0.4 mm 6 mps 747 mmHg 85%
    18:00 +19°C° 0.4 mm 5 mps 746 mmHg 89%
    19:00 +18°C° 0.5 mm 4 mps 746 mmHg 91%
    20:00 +18°C° 0.5 mm 4 mps 746 mmHg 94%
    21:00 +18°C° 0.5 mm 3 mps 746 mmHg 96%
    22:00 +17°C° 0.1 mm 4 mps 745 mmHg 96%
    23:00 +17°C° 0.1 mm 4 mps 745 mmHg 96%

    Tomorrow, 22 September, Sunday

    Time Temperature Precipitation Wind Pressure Humidity
    00:00 +17°C° 0.1 mm 4 mps 745 mmHg 96%
    01:00 +16°C° 0.3 mm 5 mps 744 mmHg 96%
    02:00 +16°C° 0.3 mm 5 mps 744 mmHg 96%
    03:00 +16°C° 0.3 mm 6 mps 744 mmHg 97%
    04:00 +16°C° 0.8 mm 5 mps 744 mmHg 96%
    05:00 +15°C° 0.8 mm 5 mps 744 mmHg 96%
    06:00 +14°C° 0.8 mm 5 mps 744 mmHg 96%
    07:00 +14°C° 1 mm 5 mps 744 mmHg 95%
    08:00 +15°C° 1 mm 5 mps 744 mmHg 93%
    09:00 +15°C° 1 mm 5 mps 744 mmHg 92%
    10:00 +15°C° 0.3 mm 5 mps 744 mmHg 88%
    11:00 +16°C° 0.3 mm 5 mps 744 mmHg 85%
    12:00 +17°C° 0.3 mm 6 mps 745 mmHg 82%
    13:00 +17°C° 0.7 mm 5 mps 745 mmHg 81%
    14:00 +17°C° 0.7 mm 5 mps 745 mmHg 81%
    15:00 +18°C° 0.7 mm 4 mps 745 mmHg 81%
    16:00 +16°C° 0.7 mm 5 mps 745 mmHg 84%
    17:00 +15°C° 0.7 mm 6 mps 745 mmHg 88%
    18:00 +14°C° 0.7 mm 7 mps 746 mmHg 92%
    19:00 +12°C° 0 mm 7 mps 746 mmHg 91%
    20:00 +12°C° 0 mm 7 mps 747 mmHg 91%
    21:00 +11°C° 0 mm 7 mps 748 mmHg 91%
    22:00 +11°C° 0 mm 7 mps 748 mmHg 91%
    23:00 +10°C° 0 mm 6 mps 749 mmHg 92%

    Day after tomorrow, 23 September, Monday

    Time Temperature Precipitation Wind Pressure Humidity
    00:00 +10°C° 0 mm 5 mps 749 mmHg 93%
    01:00 +10°C° 0 mm 5 mps 749 mmHg 93%
    02:00 +10°C° 0 mm 5 mps 750 mmHg 93%
    03:00 +9°C° 0 mm 5 mps 750 mmHg 94%
    04:00 +9°C° 0 mm 5 mps 750 mmHg 93%
    05:00 +9°C° 0 mm 5 mps 750 mmHg 93%
    06:00 +9°C° 0 mm 5 mps 750 mmHg 93%
    07:00 +11°C° 0 mm 6 mps 750 mmHg 91%
    08:00 +13°C° 0 mm 6 mps 750 mmHg 89%
    09:00 +15°C° 0 mm 7 mps 749 mmHg 86%
    10:00 +13°C° 0.3 mm 8 mps 749 mmHg 89%
    11:00 +13°C° 0.3 mm 8 mps 749 mmHg 91%
    12:00 +13°C° 0.3 mm 9 mps 748 mmHg 93%
    13:00 +13°C° 0.5 mm 9 mps 748 mmHg 94%
    14:00 +15°C° 0.5 mm 9 mps 747 mmHg 95%
    15:00 +14°C° 0.5 mm 10 mps 746 mmHg 96%
    16:00 +16°C° 0.5 mm 9 mps 746 mmHg 96%
    17:00 +16°C° 0.5 mm 9 mps 746 mmHg 96%
    18:00 +16°C° 0.5 mm 8 mps 745 mmHg 96%
    19:00 +16°C° 0.3 mm 7 mps 745 mmHg 96%
    20:00 +16°C° 0.3 mm 7 mps 745 mmHg 96%
    21:00 +16°C° 0.3 mm 6 mps 745 mmHg 97%
    22:00 +16°C° 0.3 mm 6 mps 745 mmHg 97%
    23:00 +16°C° 0.3 mm 5 mps 744 mmHg 97%

    24 September, Tuesday

    Time Temperature Precipitation Wind Pressure Humidity
    00:00 +15°C° 0.3 mm 5 mps 744 mmHg 97%
    01:00 +15°C° 0.5 mm 5 mps 743 mmHg 97%
    02:00 +15°C° 0.5 mm 5 mps 742 mmHg 97%
    03:00 +15°C° 0.5 mm 5 mps 742 mmHg 97%
    04:00 +15°C° 1 mm 6 mps 741 mmHg 96%
    05:00 +15°C° 1 mm 7 mps 741 mmHg 96%
    06:00 +15°C° 1 mm 7 mps 740 mmHg 95%
    07:00 +15°C° 0.7 mm 7 mps 741 mmHg 93%
    08:00 +15°C° 0.7 mm 7 mps 741 mmHg 91%
    09:00 +15°C° 0.7 mm 6 mps 741 mmHg 89%
    10:00 +16°C° 0.1 mm 7 mps 741 mmHg 85%
    11:00 +16°C° 0.1 mm 8 mps 741 mmHg 82%
    12:00 +17°C° 0.1 mm 9 mps 742 mmHg 78%
    13:00 +17°C° 0.5 mm 9 mps 742 mmHg 82%
    14:00 +16°C° 0.5 mm 10 mps 742 mmHg 86%
    15:00 +16°C° 0.5 mm 10 mps 742 mmHg 90%
    16:00 +14°C° 0.3 mm 10 mps 742 mmHg 90%
    17:00 +14°C° 0.3 mm 10 mps 741 mmHg 90%
    18:00 +13°C° 0.3 mm 10 mps 741 mmHg 91%
    19:00 +13°C° 0.4 mm 10 mps 741 mmHg 91%
    20:00 +13°C° 0.4 mm 11 mps 740 mmHg 92%
    21:00 +12°C° 0.4 mm 11 mps 740 mmHg 93%
    22:00 +13°C° 1 mm 11 mps 739 mmHg 94%
    23:00 +13°C° 1 mm 11 mps 739 mmHg 94%

    25 September, Wednesday

    Time Temperature Precipitation Wind Pressure Humidity
    00:00 +14°C° 1 mm 11 mps 738 mmHg 94%
    01:00 +14°C° 0.7 mm 12 mps 738 mmHg 94%
    02:00 +14°C° 0.7 mm 12 mps 738 mmHg 94%
    03:00 +14°C° 0.7 mm 13 mps 738 mmHg 94%
    04:00 +14°C° 0.3 mm 12 mps 739 mmHg 93%
    05:00 +14°C° 0.3 mm 11 mps 739 mmHg 93%
    06:00 +13°C° 0.3 mm 11 mps 740 mmHg 92%
    07:00 +14°C° 0.3 mm 10 mps 741 mmHg 92%
    08:00 +14°C° 0.3 mm 10 mps 741 mmHg 92%
    09:00 +15°C° 0.3 mm 9 mps 742 mmHg 91%
    10:00 +15°C° 0.2 mm 9 mps 742 mmHg 89%
    11:00 +15°C° 0.2 mm 9 mps 743 mmHg 87%
    12:00 +16°C° 0.2 mm 8 mps 743 mmHg 85%
    13:00 +15°C° 0.1 mm 7 mps 743 mmHg 86%
    14:00 +15°C° 0.1 mm 7 mps 743 mmHg 88%
    15:00 +15°C° 0.1 mm 6 mps 742 mmHg 89%
    16:00 +15°C° 0.1 mm 5 mps 742 mmHg 92%
    17:00 +14°C° 0.1 mm 4 mps 743 mmHg 94%
    18:00 +14°C° 0.1 mm 3 mps 743 mmHg 97%
    19:00 +14°C° 0.2 mm 4 mps 743 mmHg 96%
    20:00 +15°C° 0.2 mm 6 mps 743 mmHg 96%
    21:00 +15°C° 0.2 mm 7 mps 744 mmHg 95%
    22:00 +13°C° 0.1 mm 8 mps 744 mmHg 93%
    23:00 +13°C° 0.1 mm 9 mps 745 mmHg 91%

    26 September, Thursday

    Time Temperature Precipitation Wind Pressure Humidity
    00:00 +12°C° 0.1 mm 10 mps 745 mmHg 88%
    01:00 +12°C° 0 mm 9 mps 745 mmHg 87%
    02:00 +12°C° 0 mm 8 mps 746 mmHg 86%
    03:00 +12°C° 0 mm 7 mps 746 mmHg 86%
    04:00 +12°C° 0 mm 7 mps 746 mmHg 87%
    05:00 +12°C° 0 mm 7 mps 746 mmHg 88%
    06:00 +12°C° 0 mm 7 mps 746 mmHg 90%
    07:00 +13°C° 0.3 mm 6 mps 747 mmHg 91%
    08:00 +13°C° 0.3 mm 6 mps 747 mmHg 93%
    09:00 +14°C° 0.3 mm 5 mps 747 mmHg 95%
    10:00 +14°C° 0.1 mm 6 mps 748 mmHg 91%
    11:00 +14°C° 0.1 mm 6 mps 748 mmHg 86%
    12:00 +14°C° 0.1 mm 7 mps 748 mmHg 82%
    13:00 +15°C° 0.1 mm 7 mps 749 mmHg 78%
    14:00 +15°C° 0.1 mm 8 mps 749 mmHg 74%
    15:00 +15°C° 0.1 mm 8 mps 749 mmHg 70%
    16:00 +13°C° 0.1 mm 8 mps 749 mmHg 74%
    17:00 +12°C° 0.1 mm 7 mps 750 mmHg 78%
    18:00 +11°C° 0.1 mm 6 mps 750 mmHg 82%
    19:00 +10°C° 0 mm 6 mps 750 mmHg 84%
    20:00 +10°C° 0 mm 6 mps 751 mmHg 86%
    21:00 +9°C° 0 mm 6 mps 751 mmHg 88%
    22:00 +9°C° 0.1 mm 6 mps 751 mmHg 89%
    23:00 +9°C° 0.1 mm 6 mps 751 mmHg 90%
    Show more